Tracking 25693 objects as of 1-Jul-2022
HD Live streaming from Space Station
objects crossing your sky now

FENGYUN 1C DEB

Track FENGYUN 1C DEB now!
10-day predictions


NORAD ID: 30882
Int'l Code: 1999-025AXU
Perigee: 540.4 km
Apogee: 875.7 km
Inclination: 98.1 °
Period: 98.8 minutes
Semi major axis: 7079 km
RCS: 0.0116 m2 (small)
Launch date: May 10, 1999
Source: People's Republic of China (PRC)
Launch site: Taiyaun Space Center, China (TSC)

Note: This is SATELLITE DEBRIS
aabbcc
Your satellite tracking list
Your tracking list is empty




NASA's NSSDC Master Catalog

Two Line Element Set (TLE):
1 30882U 99025AXU 22181.39597246  .00001996  00000-0  30586-3 0  9995
2 30882  98.1126 241.0426 0236806  95.3290 267.4974 14.57610789811313
Source of the keplerian elements: AFSPC